Time,TemperatureF,DewpointF,PressureIn,WindDirection,WindDirectionDegrees,WindSpeedMPH,WindSpeedGustMPH,Humidity,HourlyPrecipIn,Conditions,Clouds,dailyrainin,SolarRadiationWatts/m^2,SoftwareType,DateUTC
2013-01-04 00:03:00,16.7,10.5,30.16,West,273,8.0,8.0,76,0.00,,CLR,0.00,0.00,VWS V14.00,2013-01-04 06:03:00,
2013-01-04 00:08:00,17.3,11.3,30.16,West,273,7.0,9.0,77,0.00,,CLR,0.00,0.00,VWS V14.00,2013-01-04 06:08:00,
2013-01-04 00:13:00,17.5,10.9,30.17,West,273,7.0,9.0,75,0.00,,CLR,0.00,0.00,VWS V14.00,2013-01-04 06:13:00,
2013-01-04 00:18:00,17.7,11.1,30.17,West,273,7.0,9.0,75,0.00,,CLR,0.00,0.00,VWS V14.00,2013-01-04 06:18:00,
2013-01-04 00:23:00,17.8,11.2,30.17,West,275,6.0,9.0,75,0.00,,CLR,0.00,0.00,VWS V14.00,2013-01-04 06:23:00,
2013-01-04 00:28:00,18.2,11.3,30.17,WNW,285,7.0,9.0,74,0.00,,CLR,0.00,0.00,VWS V14.00,2013-01-04 06:28:00,
2013-01-04 00:33:00,18.2,11.3,30.17,WNW,294,8.0,9.0,74,0.00,,CLR,0.00,0.00,VWS V14.00,2013-01-04 06:33:00,
2013-01-04 00:38:00,18.2,11.3,30.17,WNW,296,7.0,9.0,74,0.00,,CLR,0.00,0.00,VWS V14.00,2013-01-04 06:38:00,
2013-01-04 00:43:00,17.9,11.0,30.17,WNW,296,6.0,9.0,74,0.00,,CLR,0.00,0.00,VWS V14.00,2013-01-04 06:43:00,
2013-01-04 00:48:00,17.9,11.3,30.17,WNW,296,6.0,9.0,75,0.00,,CLR,0.00,0.00,VWS V14.00,2013-01-04 06:48:00,
2013-01-04 00:53:00,17.8,10.9,30.17,WNW,296,7.0,9.0,74,0.00,,CLR,0.00,0.00,VWS V14.00,2013-01-04 06:53:00,
2013-01-04 00:58:00,18.0,11.4,30.17,WNW,296,6.0,9.0,75,0.00,,CLR,0.00,0.00,VWS V14.00,2013-01-04 06:58:00,
2013-01-04 01:04:00,17.6,10.7,30.17,WNW,296,5.0,7.0,74,0.00,,CLR,0.00,0.00,VWS V14.00,2013-01-04 07:04:00,
2013-01-04 01:09:00,17.4,10.9,30.16,WNW,296,5.0,7.0,75,0.00,,CLR,0.00,0.00,VWS V14.00,2013-01-04 07:09:00,
2013-01-04 01:14:00,16.3,9.2,30.16,WNW,296,7.0,7.0,73,0.00,,CLR,0.00,0.00,VWS V14.00,2013-01-04 07:14:00,
2013-01-04 01:19:00,15.4,9.2,30.16,WNW,295,5.0,8.0,76,0.00,,CLR,0.00,0.00,VWS V14.00,2013-01-04 07:19:00,
2013-01-04 01:24:00,16.2,10.6,30.16,WNW,295,7.0,8.0,78,0.00,,CLR,0.00,0.00,VWS V14.00,2013-01-04 07:24:00,
2013-01-04 01:29:00,16.5,10.6,30.16,WNW,295,6.0,8.0,77,0.00,,CLR,0.00,0.00,VWS V14.00,2013-01-04 07:29:00,
2013-01-04 01:34:00,16.7,10.5,30.16,WNW,294,7.0,8.0,76,0.00,,CLR,0.00,0.00,VWS V14.00,2013-01-04 07:34:00,
2013-01-04 01:39:00,15.9,9.4,30.17,WNW,292,6.0,8.0,75,0.00,,CLR,0.00,0.00,VWS V14.00,2013-01-04 07:39:00,
2013-01-04 01:44:00,16.4,11.0,30.17,WNW,292,6.0,8.0,79,0.00,,CLR,0.00,0.00,VWS V14.00,2013-01-04 07:44:00,
2013-01-04 01:49:00,16.9,10.9,30.17,WNW,292,5.0,8.0,77,0.00,,CLR,0.00,0.00,VWS V14.00,2013-01-04 07:49:00,
2013-01-04 01:54:00,17.3,11.3,30.17,WNW,292,6.0,8.0,77,0.00,,CLR,0.00,0.00,VWS V14.00,2013-01-04 07:54:00,
2013-01-04 01:59:00,17.3,11.1,30.17,WNW,292,4.0,8.0,76,0.00,,CLR,0.00,0.00,VWS V14.00,2013-01-04 07:59:00,
2013-01-04 02:04:00,17.0,10.8,30.17,WNW,292,5.0,6.0,76,0.00,,CLR,0.00,0.00,VWS V14.00,2013-01-04 08:04:00,
2013-01-04 02:09:00,16.6,10.7,30.17,WNW,292,5.0,6.0,77,0.00,,CLR,0.00,0.00,VWS V14.00,2013-01-04 08:09:00,
2013-01-04 02:14:00,16.7,10.8,30.17,WNW,292,5.0,6.0,77,0.00,,CLR,0.00,0.00,VWS V14.00,2013-01-04 08:14:00,
2013-01-04 02:19:00,16.6,10.9,30.17,WNW,292,6.0,6.0,78,0.00,,CLR,0.00,0.00,VWS V14.00,2013-01-04 08:19:00,
2013-01-04 02:24:00,16.6,10.9,30.17,WNW,292,5.0,6.0,78,0.00,,CLR,0.00,0.00,VWS V14.00,2013-01-04 08:24:00,
2013-01-04 02:29:00,16.4,10.8,30.17,WNW,292,4.0,6.0,78,0.00,,CLR,0.00,0.00,VWS V14.00,2013-01-04 08:29:00,
2013-01-04 02:34:00,16.2,10.6,30.17,WNW,292,5.0,6.0,78,0.00,,CLR,0.00,0.00,VWS V14.00,2013-01-04 08:34:00,
2013-01-04 02:39:00,16.0,10.4,30.17,WNW,292,5.0,6.0,78,0.00,,CLR,0.00,0.00,VWS V14.00,2013-01-04 08:39:00,
2013-01-04 02:44:00,15.9,10.3,30.18,WNW,292,5.0,6.0,78,0.00,,CLR,0.00,0.00,VWS V14.00,2013-01-04 08:44:00,
2013-01-04 02:49:00,16.0,10.6,30.18,WNW,292,5.0,6.0,79,0.00,,CLR,0.00,0.00,VWS V14.00,2013-01-04 08:49:00,
2013-01-04 02:54:00,15.8,10.2,30.18,WNW,292,6.0,6.0,78,0.00,,CLR,0.00,0.00,VWS V14.00,2013-01-04 08:54:00,
2013-01-04 02:59:00,15.8,10.5,30.18,WNW,292,5.0,5.0,79,0.00,,CLR,0.00,0.00,VWS V14.00,2013-01-04 08:59:00,
2013-01-04 03:05:00,16.2,10.8,30.18,WNW,292,6.0,7.0,79,0.00,,CLR,0.00,0.00,VWS V14.00,2013-01-04 09:05:00,
2013-01-04 03:10:00,15.8,10.2,30.18,WNW,292,6.0,7.0,78,0.00,,CLR,0.00,0.00,VWS V14.00,2013-01-04 09:10:00,
2013-01-04 03:15:00,16.5,11.1,30.18,WNW,292,6.0,7.0,79,0.00,,CLR,0.00,0.00,VWS V14.00,2013-01-04 09:15:00,
2013-01-04 03:20:00,16.9,11.2,30.18,WNW,292,6.0,7.0,78,0.00,,CLR,0.00,0.00,VWS V14.00,2013-01-04 09:20:00,
2013-01-04 03:25:00,16.9,10.9,30.18,WNW,292,6.0,7.0,77,0.00,,CLR,0.00,0.00,VWS V14.00,2013-01-04 09:25:00,
2013-01-04 03:30:00,16.6,10.7,30.18,WNW,292,6.0,6.0,77,0.00,,CLR,0.00,0.00,VWS V14.00,2013-01-04 09:30:00,
2013-01-04 03:35:00,16.3,10.4,30.18,WNW,292,6.0,7.0,77,0.00,,CLR,0.00,0.00,VWS V14.00,2013-01-04 09:35:00,
2013-01-04 03:40:00,16.3,10.4,30.18,WNW,292,6.0,7.0,77,0.00,,CLR,0.00,0.00,VWS V14.00,2013-01-04 09:40:00,
2013-01-04 03:45:00,16.4,10.8,30.18,WNW,292,7.0,7.0,78,0.00,,CLR,0.00,0.00,VWS V14.00,2013-01-04 09:45:00,
2013-01-04 03:50:00,16.7,11.1,30.19,WNW,292,6.0,8.0,78,0.00,,CLR,0.00,0.00,VWS V14.00,2013-01-04 09:50:00,
2013-01-04 03:55:00,16.9,10.9,30.19,WNW,292,7.0,8.0,77,0.00,,CLR,0.00,0.00,VWS V14.00,2013-01-04 09:55:00,
2013-01-04 04:00:00,17.0,11.1,30.19,WNW,292,7.0,7.0,77,0.00,,CLR,0.00,0.00,VWS V14.00,2013-01-04 10:00:00,
2013-01-04 04:05:00,17.0,11.1,30.19,WNW,292,7.0,8.0,77,0.00,,CLR,0.00,0.00,VWS V14.00,2013-01-04 10:05:00,
2013-01-04 04:10:00,17.0,11.1,30.18,WNW,292,7.0,8.0,77,0.00,,CLR,0.00,0.00,VWS V14.00,2013-01-04 10:10:00,
2013-01-04 04:15:00,17.1,11.1,30.18,WNW,292,7.0,8.0,77,0.00,,CLR,0.00,0.00,VWS V14.00,2013-01-04 10:15:00,
2013-01-04 04:20:00,17.1,11.1,30.18,WNW,292,6.0,8.0,77,0.00,,CLR,0.00,0.00,VWS V14.00,2013-01-04 10:20:00,
2013-01-04 04:25:00,16.9,10.9,30.18,WNW,292,6.0,8.0,77,0.00,,CLR,0.00,0.00,VWS V14.00,2013-01-04 10:25:00,
2013-01-04 04:30:00,16.9,10.9,30.18,WNW,292,7.0,8.0,77,0.00,,CLR,0.00,0.00,VWS V14.00,2013-01-04 10:30:00,
2013-01-04 04:35:00,17.0,11.1,30.18,WNW,292,7.0,8.0,77,0.00,,CLR,0.00,0.00,VWS V14.00,2013-01-04 10:35:00,
2013-01-04 04:40:00,16.9,10.9,30.18,WNW,292,5.0,8.0,77,0.00,,CLR,0.00,0.00,VWS V14.00,2013-01-04 10:40:00,
2013-01-04 04:45:00,17.2,11.2,30.18,WNW,292,7.0,8.0,77,0.00,,CLR,0.00,0.00,VWS V14.00,2013-01-04 10:45:00,
2013-01-04 04:50:00,17.1,11.1,30.18,WNW,292,5.0,8.0,77,0.00,,CLR,0.00,0.00,VWS V14.00,2013-01-04 10:50:00,
2013-01-04 04:55:00,17.3,11.1,30.17,WNW,292,7.0,8.0,76,0.00,,CLR,0.00,0.00,VWS V14.00,2013-01-04 10:55:00,
2013-01-04 05:00:00,17.3,11.1,30.18,WNW,292,6.0,7.0,76,0.00,,CLR,0.00,0.00,VWS V14.00,2013-01-04 11:00:00,
2013-01-04 05:05:00,17.5,11.2,30.18,WNW,292,7.0,7.0,76,0.00,,CLR,0.00,0.00,VWS V14.00,2013-01-04 11:05:00,
2013-01-04 05:10:00,17.2,10.9,30.18,WNW,292,7.0,8.0,76,0.00,,CLR,0.00,0.00,VWS V14.00,2013-01-04 11:10:00,
2013-01-04 05:15:00,16.6,10.4,30.18,WNW,292,6.0,8.0,76,0.00,,CLR,0.00,0.00,VWS V14.00,2013-01-04 11:15:00,
2013-01-04 05:20:00,16.0,10.1,30.18,WNW,292,7.0,8.0,77,0.00,,CLR,0.00,0.00,VWS V14.00,2013-01-04 11:20:00,
2013-01-04 05:26:00,15.9,10.0,30.18,WNW,292,5.0,8.0,77,0.00,,CLR,0.00,0.00,VWS V14.00,2013-01-04 11:26:00,
2013-01-04 05:31:00,15.2,9.6,30.18,WNW,292,5.0,7.0,78,0.00,,CLR,0.00,0.00,VWS V14.00,2013-01-04 11:31:00,
2013-01-04 05:36:00,15.3,10.0,30.18,WNW,292,4.0,7.0,79,0.00,,CLR,0.00,0.00,VWS V14.00,2013-01-04 11:36:00,
2013-01-04 05:41:00,15.0,9.4,30.18,WNW,292,3.0,7.0,78,0.00,,CLR,0.00,0.00,VWS V14.00,2013-01-04 11:41:00,
2013-01-04 05:46:00,14.1,8.8,30.17,WNW,292,6.0,7.0,79,0.00,,CLR,0.00,0.00,VWS V14.00,2013-01-04 11:46:00,
2013-01-04 05:51:00,13.7,8.4,30.18,WNW,292,6.0,8.0,79,0.00,,CLR,0.00,0.00,VWS V14.00,2013-01-04 11:51:00,
2013-01-04 05:56:00,13.3,8.3,30.18,WNW,291,6.0,8.0,80,0.00,,CLR,0.00,0.00,VWS V14.00,2013-01-04 11:56:00,
2013-01-04 06:01:00,13.2,8.5,30.18,WNW,291,5.0,7.0,81,0.00,,CLR,0.00,0.00,VWS V14.00,2013-01-04 12:01:00,
2013-01-04 06:06:00,13.3,8.6,30.18,WNW,291,6.0,7.0,81,0.00,,CLR,0.00,0.00,VWS V14.00,2013-01-04 12:06:00,
2013-01-04 06:11:00,14.2,9.7,30.18,WNW,290,7.0,8.0,82,0.00,,CLR,0.00,0.00,VWS V14.00,2013-01-04 12:11:00,
2013-01-04 06:16:00,14.9,9.9,30.18,WNW,290,6.0,8.0,80,0.00,,CLR,0.00,0.00,VWS V14.00,2013-01-04 12:16:00,
2013-01-04 06:21:00,14.8,9.5,30.18,WNW,290,5.0,8.0,79,0.00,,CLR,0.00,0.00,VWS V14.00,2013-01-04 12:21:00,
2013-01-04 06:26:00,14.8,9.5,30.18,WNW,290,4.0,8.0,79,0.00,,CLR,0.00,0.00,VWS V14.00,2013-01-04 12:26:00,
2013-01-04 06:31:00,14.9,9.9,30.18,WNW,290,5.0,7.0,80,0.00,,CLR,0.00,0.00,VWS V14.00,2013-01-04 12:31:00,
2013-01-04 06:36:00,15.2,9.9,30.18,WNW,290,5.0,7.0,79,0.00,,CLR,0.00,0.00,VWS V14.00,2013-01-04 12:36:00,
2013-01-04 06:41:00,15.4,10.1,30.18,WNW,290,6.0,7.0,79,0.00,,CLR,0.00,0.00,VWS V14.00,2013-01-04 12:41:00,
2013-01-04 06:46:00,15.7,10.4,30.18,WNW,290,6.0,8.0,79,0.00,,CLR,0.00,0.00,VWS V14.00,2013-01-04 12:46:00,
2013-01-04 06:51:00,15.7,10.1,30.18,WNW,290,6.0,8.0,78,0.00,,CLR,0.00,0.00,VWS V14.00,2013-01-04 12:51:00,
2013-01-04 06:56:00,14.9,9.0,30.19,WNW,290,6.0,8.0,77,0.00,,CLR,0.00,0.00,VWS V14.00,2013-01-04 12:56:00,
2013-01-04 07:01:00,15.1,10.1,30.19,WNW,290,5.0,7.0,80,0.00,,CLR,0.00,0.00,VWS V14.00,2013-01-04 13:01:00,
2013-01-04 07:06:00,15.5,10.2,30.19,WNW,290,6.0,7.0,79,0.00,,CLR,0.00,0.00,VWS V14.00,2013-01-04 13:06:00,
2013-01-04 07:12:00,15.3,9.7,30.19,WNW,290,6.0,7.0,78,0.00,,CLR,0.00,0.00,VWS V14.00,2013-01-04 13:12:00,
2013-01-04 07:17:00,15.0,9.7,30.19,WNW,290,4.0,7.0,79,0.00,,CLR,0.00,0.00,VWS V14.00,2013-01-04 13:17:00,
2013-01-04 07:22:00,15.1,10.1,30.19,WNW,290,4.0,7.0,80,0.00,,CLR,0.00,0.00,VWS V14.00,2013-01-04 13:22:00,
2013-01-04 07:27:00,15.6,10.5,30.20,WNW,290,5.0,7.0,80,0.00,,CLR,0.00,0.00,VWS V14.00,2013-01-04 13:27:00,
2013-01-04 07:32:00,15.7,10.4,30.20,WNW,290,5.0,6.0,79,0.00,,CLR,0.00,0.00,VWS V14.00,2013-01-04 13:32:00,
2013-01-04 07:37:00,15.5,10.2,30.20,WNW,290,4.0,6.0,79,0.00,,CLR,0.00,0.00,VWS V14.00,2013-01-04 13:37:00,
2013-01-04 07:42:00,15.3,10.0,30.19,WNW,290,6.0,7.0,79,0.00,,CLR,0.00,0.00,VWS V14.00,2013-01-04 13:42:00,
2013-01-04 07:47:00,15.3,10.0,30.19,WNW,290,5.0,7.0,79,0.00,,CLR,0.00,0.00,VWS V14.00,2013-01-04 13:47:00,
2013-01-04 07:52:00,15.1,9.8,30.19,WNW,290,4.0,7.0,79,0.00,,CLR,0.00,0.00,VWS V14.00,2013-01-04 13:52:00,
2013-01-04 07:57:00,14.8,9.2,30.19,WNW,290,5.0,7.0,78,0.00,,CLR,0.00,0.00,VWS V14.00,2013-01-04 13:57:00,
2013-01-04 08:02:00,14.6,9.6,30.19,WNW,290,4.0,5.0,80,0.00,,CLR,0.00,0.00,VWS V14.00,2013-01-04 14:02:00,
2013-01-04 08:07:00,14.6,9.3,30.19,WNW,290,2.0,5.0,79,0.00,,CLR,0.00,0.00,VWS V14.00,2013-01-04 14:07:00,
2013-01-04 08:12:00,14.5,9.5,30.19,WNW,290,3.0,5.0,80,0.00,,CLR,0.00,0.00,VWS V14.00,2013-01-04 14:12:00,
2013-01-04 08:17:00,14.3,9.3,30.20,WNW,290,5.0,6.0,80,0.00,,CLR,0.00,0.00,VWS V14.00,2013-01-04 14:17:00,
2013-01-04 08:22:00,14.6,9.6,30.19,WNW,290,5.0,7.0,80,0.00,,CLR,0.00,7.00,VWS V14.00,2013-01-04 14:22:00,
2013-01-04 08:27:00,14.8,9.8,30.19,WNW,290,5.0,7.0,80,0.00,,CLR,0.00,11.00,VWS V14.00,2013-01-04 14:27:00,
2013-01-04 08:32:00,14.5,8.9,30.19,WNW,290,4.0,4.0,78,0.00,,CLR,0.00,16.00,VWS V14.00,2013-01-04 14:32:00,
2013-01-04 08:37:00,14.1,8.8,30.19,WNW,290,4.0,5.0,79,0.00,,CLR,0.00,18.00,VWS V14.00,2013-01-04 14:37:00,
2013-01-04 08:42:00,13.6,8.3,30.20,WNW,290,5.0,5.0,79,0.00,,CLR,0.00,21.00,VWS V14.00,2013-01-04 14:42:00,
2013-01-04 08:47:00,13.6,8.9,30.20,WNW,290,5.0,6.0,81,0.00,,CLR,0.00,26.00,VWS V14.00,2013-01-04 14:47:00,
2013-01-04 08:52:00,13.9,8.9,30.20,WNW,290,5.0,6.0,80,0.00,,CLR,0.00,30.00,VWS V14.00,2013-01-04 14:52:00,
2013-01-04 08:57:00,14.3,9.6,30.20,WNW,291,6.0,7.0,81,0.00,,CLR,0.00,32.00,VWS V14.00,2013-01-04 14:57:00,
2013-01-04 09:02:00,14.7,9.9,30.21,WNW,291,2.0,5.0,81,0.00,,CLR,0.00,37.00,VWS V14.00,2013-01-04 15:02:00,
2013-01-04 09:07:00,14.7,9.4,30.21,WNW,291,0.0,5.0,79,0.00,,CLR,0.00,42.00,VWS V14.00,2013-01-04 15:07:00,
2013-01-04 09:13:00,14.9,9.6,30.21,WNW,291,2.0,5.0,79,0.00,,CLR,0.00,51.00,VWS V14.00,2013-01-04 15:13:00,
2013-01-04 09:18:00,14.6,9.3,30.21,WNW,291,3.0,5.0,79,0.00,,CLR,0.00,46.00,VWS V14.00,2013-01-04 15:18:00,
2013-01-04 09:23:00,14.3,9.3,30.22,WNW,291,2.0,5.0,80,0.00,,CLR,0.00,74.00,VWS V14.00,2013-01-04 15:23:00,
2013-01-04 09:28:00,14.3,9.3,30.22,WNW,291,1.0,5.0,80,0.00,,CLR,0.00,51.00,VWS V14.00,2013-01-04 15:28:00,
2013-01-04 09:33:00,14.5,9.5,30.22,WNW,291,0.0,1.0,80,0.00,,CLR,0.00,69.00,VWS V14.00,2013-01-04 15:33:00,
2013-01-04 09:38:00,15.2,10.1,30.23,WNW,291,0.0,1.0,80,0.00,,CLR,0.00,69.00,VWS V14.00,2013-01-04 15:38:00,
2013-01-04 09:43:00,15.7,10.4,30.23,WNW,291,0.0,1.0,79,0.00,,CLR,0.00,95.00,VWS V14.00,2013-01-04 15:43:00,
2013-01-04 09:48:00,15.8,9.9,30.23,WNW,291,0.0,1.0,77,0.00,,CLR,0.00,86.00,VWS V14.00,2013-01-04 15:48:00,
2013-01-04 09:53:00,16.3,10.4,30.23,WNW,291,1.0,1.0,77,0.00,,CLR,0.00,123.00,VWS V14.00,2013-01-04 15:53:00,
2013-01-04 09:58:00,16.4,10.5,30.23,WNW,291,2.0,3.0,77,0.00,,CLR,0.00,139.00,VWS V14.00,2013-01-04 15:58:00,
2013-01-04 10:03:00,16.7,10.5,30.24,WNW,291,2.0,3.0,76,0.00,,CLR,0.00,158.00,VWS V14.00,2013-01-04 16:03:00,
2013-01-04 10:08:00,16.3,10.1,30.24,WNW,291,1.0,3.0,76,0.00,,CLR,0.00,171.00,VWS V14.00,2013-01-04 16:08:00,
2013-01-04 10:13:00,16.1,10.2,30.24,WNW,291,1.0,3.0,77,0.00,,CLR,0.00,176.00,VWS V14.00,2013-01-04 16:13:00,
2013-01-04 10:18:00,16.2,10.3,30.24,WNW,291,0.0,3.0,77,0.00,,CLR,0.00,204.00,VWS V14.00,2013-01-04 16:18:00,
2013-01-04 10:23:00,16.3,10.4,30.24,WNW,291,1.0,3.0,77,0.00,,CLR,0.00,202.00,VWS V14.00,2013-01-04 16:23:00,
2013-01-04 10:28:00,16.4,10.5,30.23,WNW,291,2.0,3.0,77,0.00,,CLR,0.00,204.00,VWS V14.00,2013-01-04 16:28:00,
2013-01-04 10:33:00,16.5,10.3,30.23,WNW,291,2.0,3.0,76,0.00,,CLR,0.00,207.00,VWS V14.00,2013-01-04 16:33:00,
2013-01-04 10:38:00,16.4,10.2,30.24,WNW,291,2.0,4.0,76,0.00,,CLR,0.00,174.00,VWS V14.00,2013-01-04 16:38:00,
2013-01-04 10:43:00,16.6,10.4,30.24,WNW,291,1.0,4.0,76,0.00,,CLR,0.00,162.00,VWS V14.00,2013-01-04 16:43:00,
2013-01-04 10:48:00,16.6,10.4,30.23,WNW,291,1.0,4.0,76,0.00,,CLR,0.00,113.00,VWS V14.00,2013-01-04 16:48:00,
2013-01-04 10:53:00,16.8,10.6,30.23,WNW,291,0.0,4.0,76,0.00,,CLR,0.00,220.00,VWS V14.00,2013-01-04 16:53:00,
2013-01-04 10:58:00,17.3,10.8,30.23,WNW,291,0.0,4.0,75,0.00,,CLR,0.00,199.00,VWS V14.00,2013-01-04 16:58:00,
2013-01-04 11:03:00,17.6,11.0,30.23,WNW,291,0.0,0.0,75,0.00,,CLR,0.00,123.00,VWS V14.00,2013-01-04 17:03:00,
2013-01-04 11:08:00,18.0,11.1,30.23,WNW,291,0.0,0.0,74,0.00,,CLR,0.00,295.00,VWS V14.00,2013-01-04 17:08:00,
2013-01-04 11:14:00,18.2,11.0,30.23,WNW,291,1.0,2.0,73,0.00,,CLR,0.00,302.00,VWS V14.00,2013-01-04 17:14:00,
2013-01-04 11:19:00,18.3,11.1,30.22,WNW,291,1.0,2.0,73,0.00,,CLR,0.00,304.00,VWS V14.00,2013-01-04 17:19:00,
2013-01-04 11:24:00,19.0,11.8,30.22,WNW,291,1.0,2.0,73,0.00,,CLR,0.00,315.00,VWS V14.00,2013-01-04 17:24:00,
2013-01-04 11:29:00,19.9,12.0,30.22,WNW,291,1.0,2.0,71,0.00,,CLR,0.00,325.00,VWS V14.00,2013-01-04 17:29:00,
2013-01-04 11:34:00,20.7,12.5,30.22,WNW,291,1.0,2.0,70,0.00,,CLR,0.00,325.00,VWS V14.00,2013-01-04 17:34:00,
2013-01-04 11:39:00,21.3,12.7,30.22,WNW,291,2.0,2.0,69,0.00,,CLR,0.00,336.00,VWS V14.00,2013-01-04 17:39:00,
2013-01-04 11:44:00,21.5,12.6,30.22,WNW,291,1.0,3.0,68,0.00,,CLR,0.00,341.00,VWS V14.00,2013-01-04 17:44:00,
2013-01-04 11:49:00,21.8,12.9,30.22,WNW,291,1.0,3.0,68,0.00,,CLR,0.00,346.00,VWS V14.00,2013-01-04 17:49:00,
2013-01-04 11:54:00,22.1,12.8,30.22,WNW,291,2.0,3.0,67,0.00,,CLR,0.00,350.00,VWS V14.00,2013-01-04 17:54:00,
2013-01-04 11:59:00,22.4,13.1,30.21,WNW,291,2.0,3.0,67,0.00,,CLR,0.00,355.00,VWS V14.00,2013-01-04 17:59:00,
2013-01-04 12:04:00,23.1,13.8,30.21,WNW,291,1.0,2.0,67,0.00,,CLR,0.00,359.00,VWS V14.00,2013-01-04 18:04:00,
2013-01-04 12:09:00,23.5,13.5,30.20,WNW,291,0.0,2.0,65,0.00,,CLR,0.00,360.00,VWS V14.00,2013-01-04 18:09:00,
2013-01-04 12:14:00,24.6,14.5,30.20,WNW,291,0.0,2.0,65,0.00,,CLR,0.00,364.00,VWS V14.00,2013-01-04 18:14:00,
2013-01-04 12:19:00,25.2,14.0,30.20,WNW,291,0.0,2.0,62,0.00,,CLR,0.00,366.00,VWS V14.00,2013-01-04 18:19:00,
2013-01-04 12:24:00,24.7,13.6,30.20,WNW,291,0.0,2.0,62,0.00,,CLR,0.00,367.00,VWS V14.00,2013-01-04 18:24:00,
2013-01-04 12:29:00,24.1,13.7,30.19,WNW,291,0.0,0.0,64,0.00,,CLR,0.00,369.00,VWS V14.00,2013-01-04 18:29:00,
2013-01-04 12:34:00,23.5,13.5,30.19,WNW,291,0.0,0.0,65,0.00,,CLR,0.00,371.00,VWS V14.00,2013-01-04 18:34:00,
2013-01-04 12:39:00,23.9,14.6,30.19,WNW,291,0.0,0.0,67,0.00,,CLR,0.00,373.00,VWS V14.00,2013-01-04 18:39:00,
2013-01-04 12:44:00,24.1,14.1,30.19,WNW,291,0.0,0.0,65,0.00,,CLR,0.00,373.00,VWS V14.00,2013-01-04 18:44:00,
2013-01-04 12:49:00,24.1,13.7,30.19,WNW,291,0.0,0.0,64,0.00,,CLR,0.00,373.00,VWS V14.00,2013-01-04 18:49:00,
2013-01-04 12:54:00,24.2,13.8,30.18,WNW,291,0.0,0.0,64,0.01,,CLR,0.01,373.00,VWS V14.00,2013-01-04 18:54:00,
2013-01-04 12:59:00,24.0,14.0,30.18,WNW,291,0.0,0.0,65,0.01,,CLR,0.01,374.00,VWS V14.00,2013-01-04 18:59:00,
2013-01-04 13:04:00,23.4,14.1,30.17,WNW,291,0.0,0.0,67,0.01,,CLR,0.01,373.00,VWS V14.00,2013-01-04 19:04:00,
2013-01-04 13:09:00,23.5,13.8,30.17,WNW,291,0.0,0.0,66,0.01,,CLR,0.01,371.00,VWS V14.00,2013-01-04 19:09:00,
2013-01-04 13:14:00,23.8,14.5,30.17,WNW,291,0.0,1.0,67,0.01,,CLR,0.01,369.00,VWS V14.00,2013-01-04 19:14:00,
2013-01-04 13:19:00,23.7,14.4,30.17,WNW,291,1.0,1.0,67,0.01,,CLR,0.01,367.00,VWS V14.00,2013-01-04 19:19:00,
2013-01-04 13:24:00,23.3,13.6,30.17,WNW,291,2.0,3.0,66,0.01,,CLR,0.01,366.00,VWS V14.00,2013-01-04 19:24:00,
2013-01-04 13:29:00,22.6,13.6,30.17,WNW,291,4.0,4.0,68,0.01,,CLR,0.01,362.00,VWS V14.00,2013-01-04 19:29:00,
2013-01-04 13:35:00,22.0,13.7,30.17,WNW,291,2.0,4.0,70,0.02,,CLR,0.02,359.00,VWS V14.00,2013-01-04 19:35:00,
2013-01-04 13:40:00,21.8,13.9,30.17,WNW,291,2.0,4.0,71,0.02,,CLR,0.02,355.00,VWS V14.00,2013-01-04 19:40:00,
2013-01-04 13:45:00,22.0,13.7,30.17,WNW,291,2.0,4.0,70,0.02,,CLR,0.02,352.00,VWS V14.00,2013-01-04 19:45:00,
2013-01-04 13:50:00,22.2,13.6,30.17,WNW,291,2.0,4.0,69,0.02,,CLR,0.02,348.00,VWS V14.00,2013-01-04 19:50:00,
2013-01-04 13:55:00,22.1,13.8,30.17,WNW,291,2.0,4.0,70,0.02,,CLR,0.02,343.00,VWS V14.00,2013-01-04 19:55:00,
2013-01-04 14:00:00,22.1,14.1,30.17,WNW,291,1.0,3.0,71,0.01,,CLR,0.02,339.00,VWS V14.00,2013-01-04 20:00:00,
2013-01-04 14:05:00,22.3,13.7,30.17,WNW,291,0.0,3.0,69,0.01,,CLR,0.02,334.00,VWS V14.00,2013-01-04 20:05:00,
2013-01-04 14:10:00,22.6,14.0,30.17,WNW,291,2.0,3.0,69,0.01,,CLR,0.02,327.00,VWS V14.00,2013-01-04 20:10:00,
2013-01-04 14:15:00,22.6,14.3,30.16,WNW,291,4.0,5.0,70,0.01,,CLR,0.02,322.00,VWS V14.00,2013-01-04 20:15:00,
2013-01-04 14:20:00,22.9,14.3,30.16,WNW,291,4.0,6.0,69,0.01,,CLR,0.02,315.00,VWS V14.00,2013-01-04 20:20:00,
2013-01-04 14:25:00,23.4,14.8,30.16,WNW,287,4.0,6.0,69,0.01,,CLR,0.02,308.00,VWS V14.00,2013-01-04 20:25:00,
2013-01-04 14:30:00,23.9,15.2,30.15,West,277,6.0,6.0,69,0.01,,CLR,0.02,301.00,VWS V14.00,2013-01-04 20:30:00,
2013-01-04 14:35:00,24.3,15.6,30.15,SW,236,7.0,8.0,69,0.01,,CLR,0.02,292.00,VWS V14.00,2013-01-04 20:35:00,
2013-01-04 14:40:00,24.5,15.5,30.15,SW,236,4.0,8.0,68,0.01,,CLR,0.02,283.00,VWS V14.00,2013-01-04 20:40:00,
2013-01-04 14:45:00,24.8,15.8,30.14,SW,236,3.0,8.0,68,0.01,,CLR,0.02,272.00,VWS V14.00,2013-01-04 20:45:00,
2013-01-04 14:50:00,25.1,15.7,30.14,SW,236,5.0,8.0,67,0.01,,CLR,0.02,264.00,VWS V14.00,2013-01-04 20:50:00,
2013-01-04 14:55:00,25.3,15.9,30.14,SW,236,3.0,8.0,67,0.01,,CLR,0.02,253.00,VWS V14.00,2013-01-04 20:55:00,
2013-01-04 15:00:00,25.5,15.7,30.14,SW,236,4.0,5.0,66,0.00,,CLR,0.02,243.00,VWS V14.00,2013-01-04 21:00:00,
2013-01-04 15:05:00,25.8,16.0,30.15,SW,236,4.0,6.0,66,0.00,,CLR,0.02,232.00,VWS V14.00,2013-01-04 21:05:00,
2013-01-04 15:10:00,26.0,15.9,30.14,SW,228,5.0,7.0,65,0.00,,CLR,0.02,218.00,VWS V14.00,2013-01-04 21:10:00,
2013-01-04 15:15:00,25.6,15.5,30.15,SW,226,4.0,7.0,65,0.00,,CLR,0.02,206.00,VWS V14.00,2013-01-04 21:15:00,
2013-01-04 15:20:00,25.6,15.8,30.15,SW,226,4.0,7.0,66,0.00,,CLR,0.02,192.00,VWS V14.00,2013-01-04 21:20:00,
2013-01-04 15:25:00,25.7,15.9,30.15,SW,226,4.0,7.0,66,0.00,,CLR,0.02,181.00,VWS V14.00,2013-01-04 21:25:00,
2013-01-04 15:30:00,25.8,15.7,30.16,SW,226,3.0,4.0,65,0.00,,CLR,0.02,169.00,VWS V14.00,2013-01-04 21:30:00,
2013-01-04 15:35:00,26.0,15.9,30.15,SW,226,5.0,6.0,65,0.00,,CLR,0.02,153.00,VWS V14.00,2013-01-04 21:35:00,
2013-01-04 15:40:00,25.6,15.5,30.14,SW,226,4.0,6.0,65,0.00,,CLR,0.02,146.00,VWS V14.00,2013-01-04 21:40:00,
2013-01-04 15:45:00,25.4,15.6,30.14,SW,226,3.0,6.0,66,0.00,,CLR,0.02,134.00,VWS V14.00,2013-01-04 21:45:00,
2013-01-04 15:51:00,25.3,15.6,30.14,SW,226,3.0,6.0,66,0.00,,CLR,0.02,121.00,VWS V14.00,2013-01-04 21:51:00,
2013-01-04 15:56:00,25.4,15.6,30.15,SW,226,5.0,6.0,66,0.00,,CLR,0.02,111.00,VWS V14.00,2013-01-04 21:56:00,
2013-01-04 16:01:00,25.4,15.3,30.15,SW,226,5.0,6.0,65,0.00,,CLR,0.02,98.00,VWS V14.00,2013-01-04 22:01:00,
2013-01-04 16:06:00,25.2,15.1,30.15,SW,226,6.0,6.0,65,0.00,,CLR,0.02,86.00,VWS V14.00,2013-01-04 22:06:00,
2013-01-04 16:11:00,24.9,14.8,30.15,SW,226,3.0,6.0,65,0.00,,CLR,0.02,74.00,VWS V14.00,2013-01-04 22:11:00,
2013-01-04 16:16:00,24.9,15.2,30.14,SW,226,3.0,6.0,66,0.00,,CLR,0.02,67.00,VWS V14.00,2013-01-04 22:16:00,
2013-01-04 16:21:00,24.6,15.2,30.14,SW,226,4.0,6.0,67,0.00,,CLR,0.02,58.00,VWS V14.00,2013-01-04 22:21:00,
2013-01-04 16:26:00,24.5,15.1,30.15,SW,226,5.0,6.0,67,0.00,,CLR,0.02,44.00,VWS V14.00,2013-01-04 22:26:00,
2013-01-04 16:31:00,24.4,15.0,30.15,SW,226,3.0,5.0,67,0.00,,CLR,0.02,35.00,VWS V14.00,2013-01-04 22:31:00,
2013-01-04 16:36:00,24.0,14.6,30.14,SW,226,3.0,5.0,67,0.00,,CLR,0.02,28.00,VWS V14.00,2013-01-04 22:36:00,
2013-01-04 16:41:00,23.8,14.8,30.14,SW,226,3.0,5.0,68,0.00,,CLR,0.02,25.00,VWS V14.00,2013-01-04 22:41:00,
2013-01-04 16:46:00,23.5,14.5,30.15,SW,226,3.0,5.0,68,0.00,,CLR,0.02,23.00,VWS V14.00,2013-01-04 22:46:00,
2013-01-04 16:51:00,23.6,14.6,30.15,SW,226,4.0,5.0,68,0.00,,CLR,0.02,21.00,VWS V14.00,2013-01-04 22:51:00,
2013-01-04 16:56:00,23.7,14.7,30.15,SW,226,2.0,5.0,68,0.00,,CLR,0.02,18.00,VWS V14.00,2013-01-04 22:56:00,
2013-01-04 17:01:00,23.6,14.6,30.15,SW,226,0.0,0.0,68,0.00,,CLR,0.02,14.00,VWS V14.00,2013-01-04 23:01:00,
2013-01-04 17:06:00,23.3,14.3,30.15,SW,226,1.0,1.0,68,0.00,,CLR,0.02,11.00,VWS V14.00,2013-01-04 23:06:00,
2013-01-04 17:11:00,22.5,13.9,30.15,SW,226,1.0,3.0,69,0.00,,CLR,0.02,9.00,VWS V14.00,2013-01-04 23:11:00,
2013-01-04 17:16:00,22.2,14.2,30.15,SW,226,3.0,3.0,71,0.00,,CLR,0.02,5.00,VWS V14.00,2013-01-04 23:16:00,
2013-01-04 17:21:00,21.8,13.5,30.15,SW,226,0.0,4.0,70,0.00,,CLR,0.02,0.00,VWS V14.00,2013-01-04 23:21:00,
2013-01-04 17:26:00,21.7,14.1,30.15,SW,225,3.0,4.0,72,0.00,,CLR,0.02,0.00,VWS V14.00,2013-01-04 23:26:00,
2013-01-04 17:32:00,20.9,13.0,30.14,SSW,202,4.0,5.0,71,0.00,,CLR,0.02,0.00,VWS V14.00,2013-01-04 23:32:00,
2013-01-04 17:37:00,20.8,13.8,30.14,South,191,3.0,5.0,74,0.00,,CLR,0.02,0.00,VWS V14.00,2013-01-04 23:37:00,
2013-01-04 17:42:00,20.9,13.6,30.14,South,190,4.0,5.0,73,0.00,,CLR,0.02,0.00,VWS V14.00,2013-01-04 23:42:00,
2013-01-04 17:47:00,20.7,13.4,30.14,South,190,4.0,5.0,73,0.00,,CLR,0.02,0.00,VWS V14.00,2013-01-04 23:47:00,
2013-01-04 17:52:00,20.3,13.0,30.14,South,190,4.0,5.0,73,0.00,,CLR,0.02,0.00,VWS V14.00,2013-01-04 23:52:00,
2013-01-04 17:57:00,19.5,12.3,30.13,South,172,7.0,8.0,73,0.00,,CLR,0.02,0.00,VWS V14.00,2013-01-04 23:57:00,
2013-01-04 18:02:00,18.9,12.3,30.13,SSE,159,6.0,7.0,75,0.00,,CLR,0.02,0.00,VWS V14.00,2013-01-05 00:02:00,
2013-01-04 18:07:00,18.9,12.3,30.13,SSE,159,5.0,7.0,75,0.00,,CLR,0.02,0.00,VWS V14.00,2013-01-05 00:07:00,
2013-01-04 18:12:00,18.4,11.8,30.13,SSE,159,5.0,7.0,75,0.00,,CLR,0.02,0.00,VWS V14.00,2013-01-05 00:12:00,
2013-01-04 18:17:00,17.5,10.9,30.13,SSE,159,6.0,7.0,75,0.00,,CLR,0.02,0.00,VWS V14.00,2013-01-05 00:17:00,
2013-01-04 18:22:00,17.1,11.1,30.13,SSE,159,5.0,7.0,77,0.00,,CLR,0.02,0.00,VWS V14.00,2013-01-05 00:22:00,
2013-01-04 18:27:00,17.0,11.3,30.14,SSE,159,4.0,7.0,78,0.00,,CLR,0.02,0.00,VWS V14.00,2013-01-05 00:27:00,
2013-01-04 18:32:00,16.7,11.1,30.14,SSE,159,4.0,5.0,78,0.00,,CLR,0.02,0.00,VWS V14.00,2013-01-05 00:32:00,
2013-01-04 18:37:00,16.4,11.0,30.13,SSE,159,7.0,7.0,79,0.00,,CLR,0.02,0.00,VWS V14.00,2013-01-05 00:37:00,
2013-01-04 18:42:00,16.0,10.6,30.12,SSE,158,7.0,9.0,79,0.00,,CLR,0.02,0.00,VWS V14.00,2013-01-05 00:42:00,
2013-01-04 18:47:00,15.7,10.4,30.13,SSE,158,6.0,9.0,79,0.00,,CLR,0.02,0.00,VWS V14.00,2013-01-05 00:47:00,
2013-01-04 18:52:00,15.3,10.2,30.14,SSE,158,7.0,9.0,80,0.00,,CLR,0.02,0.00,VWS V14.00,2013-01-05 00:52:00,
2013-01-04 18:57:00,14.9,9.9,30.13,SSE,158,8.0,9.0,80,0.00,,CLR,0.02,0.00,VWS V14.00,2013-01-05 00:57:00,
2013-01-04 19:02:00,15.1,10.6,30.13,SSE,157,4.0,7.0,82,0.00,,CLR,0.02,0.00,VWS V14.00,2013-01-05 01:02:00,
2013-01-04 19:07:00,15.0,10.5,30.13,SSE,157,4.0,7.0,82,0.00,,CLR,0.02,0.00,VWS V14.00,2013-01-05 01:07:00,
2013-01-04 19:12:00,14.8,10.0,30.13,SSE,157,5.0,7.0,81,0.00,,CLR,0.02,0.00,VWS V14.00,2013-01-05 01:12:00,
2013-01-04 19:18:00,14.2,9.7,30.12,SSE,156,6.0,7.0,82,0.00,,CLR,0.02,0.00,VWS V14.00,2013-01-05 01:18:00,
2013-01-04 19:23:00,14.0,9.8,30.13,SSE,156,5.0,7.0,83,0.00,,CLR,0.02,0.00,VWS V14.00,2013-01-05 01:23:00,
2013-01-04 19:28:00,14.3,10.1,30.13,SSE,156,6.0,7.0,83,0.00,,CLR,0.02,0.00,VWS V14.00,2013-01-05 01:28:00,
2013-01-04 19:33:00,14.1,9.9,30.14,SSE,156,5.0,5.0,83,0.00,,CLR,0.02,0.00,VWS V14.00,2013-01-05 01:33:00,
2013-01-04 19:38:00,14.1,9.9,30.13,SSE,156,4.0,5.0,83,0.00,,CLR,0.02,0.00,VWS V14.00,2013-01-05 01:38:00,
2013-01-04 19:43:00,14.0,9.8,30.14,SSE,156,3.0,5.0,83,0.00,,CLR,0.02,0.00,VWS V14.00,2013-01-05 01:43:00,
2013-01-04 19:48:00,14.2,10.3,30.13,SSE,156,4.0,5.0,84,0.00,,CLR,0.02,0.00,VWS V14.00,2013-01-05 01:48:00,
2013-01-04 19:53:00,13.9,9.7,30.12,SSE,156,4.0,6.0,83,0.00,,CLR,0.02,0.00,VWS V14.00,2013-01-05 01:53:00,
2013-01-04 19:58:00,14.0,10.1,30.12,SSE,156,4.0,6.0,84,0.00,,CLR,0.02,0.00,VWS V14.00,2013-01-05 01:58:00,
2013-01-04 20:03:00,14.0,10.1,30.12,SSE,156,4.0,5.0,84,0.00,,CLR,0.02,0.00,VWS V14.00,2013-01-05 02:03:00,
2013-01-04 20:08:00,14.1,10.2,30.12,SSE,156,4.0,5.0,84,0.00,,CLR,0.02,0.00,VWS V14.00,2013-01-05 02:08:00,
2013-01-04 20:13:00,14.6,10.9,30.12,SSE,156,3.0,5.0,85,0.00,,CLR,0.02,0.00,VWS V14.00,2013-01-05 02:13:00,
2013-01-04 20:18:00,14.5,10.3,30.12,SSE,156,5.0,6.0,83,0.00,,CLR,0.02,0.00,VWS V14.00,2013-01-05 02:18:00,
2013-01-04 20:23:00,13.8,9.3,30.11,SSE,156,6.0,7.0,82,0.00,,CLR,0.02,0.00,VWS V14.00,2013-01-05 02:23:00,
2013-01-04 20:28:00,13.1,8.9,30.12,SSE,156,5.0,7.0,83,0.00,,CLR,0.02,0.00,VWS V14.00,2013-01-05 02:28:00,
2013-01-04 20:33:00,12.8,8.6,30.12,SSE,156,4.0,5.0,83,0.00,,CLR,0.02,0.00,VWS V14.00,2013-01-05 02:33:00,
2013-01-04 20:38:00,12.8,8.9,30.11,SSE,156,4.0,5.0,84,0.00,,CLR,0.02,0.00,VWS V14.00,2013-01-05 02:38:00,
2013-01-04 20:43:00,13.0,9.4,30.11,SSE,156,5.0,6.0,85,0.00,,CLR,0.02,0.00,VWS V14.00,2013-01-05 02:43:00,
2013-01-04 20:48:00,13.2,9.6,30.11,SSE,156,5.0,6.0,85,0.00,,CLR,0.02,0.00,VWS V14.00,2013-01-05 02:48:00,
2013-01-04 20:53:00,12.8,8.9,30.11,SSE,156,5.0,6.0,84,0.00,,CLR,0.02,0.00,VWS V14.00,2013-01-05 02:53:00,
2013-01-04 20:58:00,12.9,9.2,30.11,SSE,156,5.0,6.0,85,0.00,,CLR,0.02,0.00,VWS V14.00,2013-01-05 02:58:00,
2013-01-04 21:03:00,13.0,9.4,30.11,SSE,156,1.0,7.0,85,0.00,,CLR,0.02,0.00,VWS V14.00,2013-01-05 03:03:00,
2013-01-04 21:08:00,12.9,9.2,30.11,SSE,156,2.0,7.0,85,0.00,,CLR,0.02,0.00,VWS V14.00,2013-01-05 03:08:00,
2013-01-04 21:13:00,13.1,9.7,30.11,SSE,156,0.0,7.0,86,0.00,,CLR,0.02,0.00,VWS V14.00,2013-01-05 03:13:00,
2013-01-04 21:18:00,13.2,9.8,30.11,SSE,156,0.0,7.0,86,0.00,,CLR,0.02,0.00,VWS V14.00,2013-01-05 03:18:00,
2013-01-04 21:23:00,13.5,10.1,30.11,SSE,156,0.0,7.0,86,0.00,,CLR,0.02,0.00,VWS V14.00,2013-01-05 03:23:00,
2013-01-04 21:28:00,14.0,10.9,30.10,SSE,156,2.0,7.0,87,0.00,,CLR,0.02,0.00,VWS V14.00,2013-01-05 03:28:00,
2013-01-04 21:33:00,14.2,10.8,30.10,SSE,156,3.0,4.0,86,0.00,,CLR,0.02,0.00,VWS V14.00,2013-01-05 03:33:00,
2013-01-04 21:39:00,14.1,10.4,30.10,SSE,156,3.0,4.0,85,0.00,,CLR,0.02,0.00,VWS V14.00,2013-01-05 03:39:00,
2013-01-04 21:44:00,14.4,10.7,30.10,SSE,156,3.0,4.0,85,0.00,,CLR,0.02,0.00,VWS V14.00,2013-01-05 03:44:00,
2013-01-04 21:49:00,14.5,10.8,30.10,SSE,156,3.0,4.0,85,0.00,,CLR,0.02,0.00,VWS V14.00,2013-01-05 03:49:00,
2013-01-04 21:54:00,14.5,10.6,30.10,SSE,156,2.0,4.0,84,0.00,,CLR,0.02,0.00,VWS V14.00,2013-01-05 03:54:00,
2013-01-04 21:59:00,14.4,10.5,30.10,SSE,156,2.0,4.0,84,0.00,,CLR,0.02,0.00,VWS V14.00,2013-01-05 03:59:00,
2013-01-04 22:04:00,14.0,10.1,30.10,SSE,156,2.0,3.0,84,0.00,,CLR,0.02,0.00,VWS V14.00,2013-01-05 04:04:00,
2013-01-04 22:09:00,13.4,9.5,30.10,SSE,156,2.0,3.0,84,0.00,,CLR,0.02,0.00,VWS V14.00,2013-01-05 04:09:00,
2013-01-04 22:14:00,12.7,8.8,30.10,SSE,156,1.0,3.0,84,0.00,,CLR,0.02,0.00,VWS V14.00,2013-01-05 04:14:00,
2013-01-04 22:19:00,12.7,9.3,30.10,SSE,156,3.0,3.0,86,0.00,,CLR,0.02,0.00,VWS V14.00,2013-01-05 04:19:00,
2013-01-04 22:24:00,12.4,8.8,30.10,SSE,156,2.0,4.0,85,0.00,,CLR,0.02,0.00,VWS V14.00,2013-01-05 04:24:00,
2013-01-04 22:29:00,12.1,8.5,30.09,SSE,156,3.0,4.0,85,0.00,,CLR,0.02,0.00,VWS V14.00,2013-01-05 04:29:00,
2013-01-04 22:34:00,11.8,8.4,30.10,SSE,156,4.0,5.0,86,0.00,,CLR,0.02,0.00,VWS V14.00,2013-01-05 04:34:00,
2013-01-04 22:39:00,11.2,7.8,30.10,SSE,156,3.0,5.0,86,0.00,,CLR,0.02,0.00,VWS V14.00,2013-01-05 04:39:00,
2013-01-04 22:44:00,11.3,8.2,30.10,SSE,156,2.0,5.0,87,0.00,,CLR,0.02,0.00,VWS V14.00,2013-01-05 04:44:00,
2013-01-04 22:49:00,11.6,8.7,30.10,SSE,156,2.0,5.0,88,0.00,,CLR,0.02,0.00,VWS V14.00,2013-01-05 04:49:00,
2013-01-04 22:54:00,11.8,8.9,30.10,SSE,156,2.0,5.0,88,0.00,,CLR,0.02,0.00,VWS V14.00,2013-01-05 04:54:00,
2013-01-04 22:59:00,12.0,9.1,30.10,SSE,156,2.0,2.0,88,0.00,,CLR,0.02,0.00,VWS V14.00,2013-01-05 04:59:00,
2013-01-04 23:00:00,12.1,9.2,30.09,SSE,156,1.0,2.0,88,0.00,,CLR,0.02,0.00,VWS V14.00,2013-01-05 05:00:00,
2013-01-04 23:03:00,12.3,9.4,30.09,SSE,156,2.0,4.0,88,0.00,,CLR,0.02,0.00,VWS V14.00,2013-01-05 05:03:00,
2013-01-04 23:05:00,12.5,9.6,30.09,SSE,156,2.0,4.0,88,0.00,,CLR,0.02,0.00,VWS V14.00,2013-01-05 05:05:00,
2013-01-04 23:06:00,12.6,9.7,30.10,SSE,156,3.0,4.0,88,0.00,,CLR,0.02,0.00,VWS V14.00,2013-01-05 05:06:00,
2013-01-04 23:11:00,12.9,9.8,30.09,SSE,156,3.0,5.0,87,0.00,,CLR,0.02,0.00,VWS V14.00,2013-01-05 05:11:00,
2013-01-04 23:16:00,13.0,9.9,30.09,SSE,156,3.0,5.0,87,0.00,,CLR,0.02,0.00,VWS V14.00,2013-01-05 05:16:00,
2013-01-04 23:22:00,13.2,9.8,30.09,SSE,156,1.0,5.0,86,0.00,,CLR,0.02,0.00,VWS V14.00,2013-01-05 05:22:00,
2013-01-04 23:27:00,13.3,9.9,30.09,SSE,156,2.0,5.0,86,0.00,,CLR,0.02,0.00,VWS V14.00,2013-01-05 05:27:00,
2013-01-04 23:32:00,13.5,10.1,30.09,SSE,156,2.0,3.0,86,0.00,,CLR,0.02,0.00,VWS V14.00,2013-01-05 05:32:00,
2013-01-04 23:37:00,13.8,10.4,30.09,SSE,156,2.0,4.0,86,0.00,,CLR,0.02,0.00,VWS V14.00,2013-01-05 05:37:00,
2013-01-04 23:42:00,14.1,10.7,30.09,SSE,156,5.0,5.0,86,0.00,,CLR,0.02,0.00,VWS V14.00,2013-01-05 05:42:00,
2013-01-04 23:47:00,14.5,10.8,30.08,SSE,156,4.0,6.0,85,0.00,,CLR,0.02,0.00,VWS V14.00,2013-01-05 05:47:00,
2013-01-04 23:52:00,14.9,11.2,30.08,SSE,156,3.0,6.0,85,0.00,,CLR,0.02,0.00,VWS V14.00,2013-01-05 05:52:00,
2013-01-04 23:57:00,15.2,11.2,30.08,SSE,156,3.0,6.0,84,0.00,,CLR,0.02,0.00,VWS V14.00,2013-01-05 05:57:00,